Location: Berlin
(38.3226°N, 75.2177°W)
Time: 21:46:46
(UTC+00:00)

Cosmos 1892 - Pass Details

Date: 26 October 2020
Orbit: 504 x 523 km, 82.5° (Epoch: 25 November)

Event Time Altitude Azimuth Distance (km) Brightness Sun altitude
Rises 00:18:41 0° 343° (NNW) 2,660 6.6 -26.1°
Reaches altitude 10° 00:20:56 10° 335° (NNW) 1,768 5.7 -26.5°
Maximum altitude 00:24:29 36° 268° (W) 850 4.2 -27.2°
Enters shadow 00:26:05 25° 222° (SW) 1,093 4.6 -27.5°
